This is the latest recevied weather packets stored in our database for station/object KC5AV. If no packets are shown the sender has not sent any weather packets the latest 10 day(s).
| Time | Temp. | Humidity | Pressure | Rain* | Wind** | Luminosity | Snow |
|---|---|---|---|---|---|---|---|
| 1778022769 | 29.44° C | 67% | 1006.3 hPa | 0 mm | - | 151 W/m² | - |
| 1778022467 | 29.44° C | 67% | 1006.3 hPa | 0 mm | - | 126 W/m² | - |
| 1778022163 | 29.44° C | 67% | 1006.3 hPa | 0 mm | - | 164 W/m² | - |
| 1778021860 | 29.44° C | 67% | 1006.3 hPa | 0 mm | - | 151 W/m² | - |
| 1778021557 | 28.89° C | 68% | 1006.1 hPa | 0 mm | - | 175 W/m² | - |
| 1778021252 | 28.89° C | 67% | 1005.9 hPa | 0 mm | - | 136 W/m² | - |
| 1778020950 | 29.44° C | 66% | 1006.3 hPa | 0 mm | - | 95 W/m² | - |
| 1778020647 | 29.44° C | 66% | 1006.3 hPa | 0 mm | - | 123 W/m² | - |
| 1778020343 | 29.44° C | 65% | 1006.1 hPa | 0 mm | - | 182 W/m² | - |
| 1778020039 | 29.44° C | 65% | 1006 hPa | 0 mm | - | 161 W/m² | - |
| 1778019735 | 30° C | 65% | 1006.2 hPa | 0 mm | - | 294 W/m² | - |
| 1778019433 | 29.44° C | 66% | 1006.3 hPa | 0 mm | - | 156 W/m² | - |
| 1778019129 | 29.44° C | 67% | 1006.1 hPa | 0 mm | - | 289 W/m² | - |
| 1778018827 | 29.44° C | 66% | 1006.2 hPa | 0 mm | - | 167 W/m² | - |
| 1778018524 | 29.44° C | 66% | 1006.3 hPa | 0 mm | - | 207 W/m² | - |
| 1778018222 | 29.44° C | 65% | 1006.4 hPa | 0 mm | - | 157 W/m² | - |
| 1778017920 | 29.44° C | 66% | 1006.6 hPa | 0 mm | - | 529 W/m² | - |
| 1778017617 | 28.89° C | 67% | 1006.6 hPa | 0 mm | - | 524 W/m² | - |
| 1778017314 | 29.44° C | 64% | 1006.6 hPa | 0 mm | - | 271 W/m² | - |
| 1778017012 | 30° C | 65% | 1006.9 hPa | 0 mm | - | 168 W/m² | - |
| 1778016708 | 28.89° C | 66% | 1006.6 hPa | 0 mm | - | 576 W/m² | - |
| 1778016404 | 28.89° C | 66% | 1006.8 hPa | 0 mm | - | 206 W/m² | - |
| 1778016102 | 28.89° C | 66% | 1006.9 hPa | 0 mm | - | 432 W/m² | - |
| 1778015799 | 28.89° C | 67% | 1007 hPa | 0 mm | - | 401 W/m² | - |
| 1778015496 | 29.44° C | 66% | 1006.6 hPa | 0 mm | - | 240 W/m² | - |
* Rain latest hour (hover to see other rain measurements)
** Current wind speed in m/s (hover to see current wind gust speed)